Wind_Speed
16 16 16 15 15 15 14 13 12 11 10 9 8 7 6 5 5 5 6 6 6 6 6 6 6 6 6 6 6 6 6 7 8 9 10 11 12 13 13 13 13 13 12
17 17 17 17 16 16 16 15 14 13 12 11 11 10 9 7 6 6 6 6 6 6 6 6 6 7 6 6 6 7 7 8 9 10 10 11 12 14 15 15 15 15 15
19 18 18 17 17 17 17 16 15 15 14 13 13 12 10 9 8 8 8 8 7 7 7 7 7 7 7 7 7 8 8 9 10 10 11 12 13 14 15 16 17 17 17
22 21 20 19 18 18 19 18 18 17 17 16 15 14 12 11 11 11 10 10 9 9 9 9 8 8 8 9 9 9 10 10 11 12 12 13 14 15 16 18 18 19 19
26 24 22 21 21 21 21 20 19 19 19 18 17 16 15 14 13 13 12 12 11 11 11 11 10 10 10 10 10 11 11 12 12 13 14 14 15 16 17 18 19 19 20
26 25 23 23 23 22 21 21 21 21 21 20 19 19 18 17 16 16 15 14 14 13 13 13 12 12 11 11 12 12 13 13 14 15 15 16 17 18 18 19 20 21 21
26 26 25 24 23 23 23 23 23 23 23 22 21 21 21 20 19 18 18 18 17 16 15 15 14 13 13 13 13 13 14 15 15 16 17 18 18 19 20 21 21 22 23
28 26 27 26 25 25 25 25 25 24 24 23 23 23 23 22 22 21 20 20 20 19 18 17 17 16 15 15 15 15 15 16 17 18 19 20 20 21 22 23 23 24 25
31 31 29 27 26 26 26 26 27 27 26 25 24 24 24 24 24 23 23 23 22 22 21 20 19 19 18 17 16 16 17 17 18 19 20 21 22 23 24 24 25 26 26
33 32 31 29 28 27 27 28 27 27 27 26 26 26 25 25 25 25 25 24 24 24 23 22 22 21 21 20 19 18 19 19 20 20 21 22 23 24 25 25 26 26 27
35 33 31 30 30 29 30 30 29 28 28 27 27 27 27 27 27 27 27 27 27 26 26 25 25 24 23 22 21 21 20 21 21 21 22 23 23 24 25 26 26 27 27
36 34 32 30 30 31 30 30 30 29 29 29 29 28 29 29 29 28 28 29 29 29 29 28 28 27 26 25 23 23 22 22 22 21 22 22 23 23 24 25 26 27 28
35 35 34 31 30 30 31 30 29 29 29 29 29 30 31 31 31 31 31 31 31 31 31 30 30 30 29 27 25 25 24 24 23 22 22 23 23 23 24 25 26 27 28
32 31 31 30 29 29 28 29 30 30 30 30 31 31 31 32 32 33 33 32 32 31 32 32 32 31 30 28 27 26 26 25 25 24 24 24 24 24 25 25 26 27 28
27 27 27 27 27 28 28 29 29 29 29 30 30 31 31 33 34 35 35 34 33 32 32 33 34 32 30 28 28 27 26 26 26 26 25 25 25 25 25 25 26 27 28
24 25 26 26 27 27 28 30 30 30 30 29 29 29 30 31 33 33 34 33 32 32 32 32 33 31 28 27 27 27 27 26 27 27 26 25 25 25 25 25 26 27 28
20 21 21 23 25 25 26 26 26 26 27 27 28 29 30 30 30 30 30 30 30 30 31 31 30 28 25 26 26 26 26 26 26 26 26 26 25 25 25 26 26 27 27
16 17 18 20 21 21 22 23 23 24 25 25 25 26 26 26 26 27 27 27 28 28 28 28 26 25 24 24 25 25 25 25 25 26 26 26 26 25 26 26 26 27 28
11 12 14 16 17 18 19 20 20 21 22 21 21 21 22 24 24 25 25 26 27 26 25 23 22 21 21 22 22 23 24 24 25 25 26 26 26 26 27 27 27 27 28
6 8 10 12 13 14 14 15 16 17 17 18 18 19 19 20 19 20 21 20 20 19 19 18 18 18 18 20 21 22 23 24 25 25 26 27 27 27 27 26 27 27 27
5 6 7 8 8 9 9 11 12 13 14 14 15 15 15 14 14 14 15 15 15 15 16 16 17 17 18 19 20 21 22 23 24 25 26 26 27 27 27 27 27 27 27
7 7 7 8 8 8 9 10 10 11 12 12 12 12 12 11 12 12 12 12 13 13 14 15 15 16 17 18 19 20 21 22 23 24 25 25 26 26 26 26 26 26 26
9 8 8 8 8 9 9 10 10 10 10 10 11 11 11 11 11 10 11 11 11 11 12 13 14 15 16 17 18 19 20 21 22 23 23 24 24 25 25 25 25 25 24
11 10 11 10 9 10 10 10 11 11 11 11 11 11 11 10 10 10 10 10 10 11 12 13 14 14 15 15 16 17 18 19 19 20 20 21 22 22 23 23 23 23 23
13 12 12 11 11 10 10 10 10 10 11 10 11 11 11 10 10 10 10 10 10 11 11 12 12 13 13 13 14 15 15 16 17 17 17 18 18 19 20 20 21 21 21
16 15 13 12 12 10 9 9 8 8 8 8 8 9 9 9 9 9 9 9 10 10 10 10 10 10 11 12 12 13 13 13 14 14 15 15 16 17 17 18 19 19 20
Wind_Direction
277 279 280 278 279 279 279 279 277 278 281 281 282 287 288 287 286 284 283 284 287 290 288 282 278 279 281 283 284 278 269 263 261 258 256 255 253 252 251 252 251 248 246
271 274 276 276 275 275 275 276 274 273 274 274 273 274 276 278 278 277 275 276 278 280 281 281 279 279 279 281 285 286 282 274 266 264 263 260 258 256 254 254 254 254 251
264 267 271 272 272 272 273 273 272 271 269 268 267 269 272 273 270 271 272 272 273 274 274 275 274 276 278 279 281 282 281 278 275 271 267 264 260 258 256 255 256 256 254
261 262 265 267 269 270 272 272 271 269 267 265 265 266 269 270 269 268 269 270 269 269 269 268 268 271 275 277 279 281 281 279 276 273 270 268 265 262 260 259 258 258 257
260 260 261 264 266 268 271 270 267 267 265 264 264 264 265 267 268 266 265 265 263 265 265 266 266 268 272 275 278 280 281 281 279 276 273 271 269 267 265 262 261 260 259
258 259 261 263 264 266 267 267 265 264 263 261 261 262 263 264 265 264 262 261 261 262 263 264 265 267 271 275 277 280 281 280 279 277 275 273 271 269 267 265 263 262 261
258 257 258 258 261 264 264 265 264 263 261 259 258 259 261 263 262 261 261 261 261 261 260 261 265 269 271 273 275 278 279 279 277 276 274 273 271 270 268 267 266 265 263
257 259 259 258 261 263 264 262 260 261 261 260 259 258 259 260 259 258 259 260 260 260 259 261 264 267 270 273 274 277 278 278 277 276 275 274 272 271 270 269 268 267 266
257 261 261 259 261 262 263 263 258 257 258 260 261 259 256 256 258 259 260 259 259 260 260 260 263 266 269 272 273 275 276 276 276 277 277 276 274 272 271 271 270 269 267
259 261 261 260 261 263 263 261 258 256 256 258 258 258 257 256 256 257 258 259 258 258 258 260 264 266 267 269 270 272 274 275 276 277 277 276 275 274 273 272 271 271 269
260 261 262 264 262 261 262 262 259 256 256 256 257 257 257 256 255 257 257 257 257 257 258 260 263 265 267 267 268 270 272 274 275 276 277 276 276 275 275 274 272 271 271
257 259 263 264 264 261 259 260 259 259 257 256 255 256 258 255 255 256 258 258 255 256 257 258 260 261 264 266 267 269 271 272 273 275 276 276 276 276 276 275 273 272 271
257 258 261 262 263 262 262 262 260 263 259 256 255 256 257 256 255 257 258 258 255 254 254 256 257 258 261 263 265 268 270 271 272 274 275 276 276 277 277 276 274 272 271
258 259 259 260 259 262 263 265 264 262 259 257 254 256 258 257 256 256 257 257 256 253 252 253 254 255 256 259 262 265 267 270 272 274 275 275 276 277 277 276 274 273 272
258 258 259 258 261 261 262 262 263 260 260 257 256 257 258 256 255 255 255 255 254 253 252 253 253 252 252 256 259 261 265 268 270 272 274 275 276 277 277 276 275 274 273
259 259 258 258 261 263 263 261 261 261 258 257 257 256 257 257 256 254 253 252 251 251 252 253 251 249 249 252 255 259 262 265 268 270 273 275 276 275 276 276 275 274 273
258 258 257 258 261 263 263 263 262 263 260 258 257 258 258 257 254 254 252 250 249 249 250 248 248 248 249 252 255 257 260 264 267 269 272 274 275 276 276 276 275 274 274
262 260 259 260 262 263 264 264 263 264 261 261 263 261 259 257 255 253 251 249 249 248 248 247 246 247 250 252 255 258 261 264 268 270 272 273 274 277 277 277 276 276 275
265 263 265 265 264 264 263 262 260 262 263 263 262 260 257 255 253 251 249 247 246 247 246 246 246 248 252 255 259 263 266 268 270 272 273 274 275 277 278 278 278 277 275
282 278 276 275 269 268 266 265 263 262 263 260 258 256 255 254 253 253 250 248 248 247 247 248 249 253 257 260 263 266 267 268 270 272 273 275 275 277 278 279 278 278 276
347 329 312 303 296 286 278 274 268 266 263 261 259 259 258 255 252 251 250 251 251 249 250 250 253 256 260 262 264 266 268 269 271 272 274 275 276 277 279 279 279 277 275
359 342 328 316 306 298 293 287 278 270 265 264 263 263 261 259 255 251 250 249 249 251 252 253 256 259 262 264 266 267 269 270 272 273 274 276 277 277 279 281 281 279 276
8 356 340 326 312 299 293 289 282 272 265 265 263 262 261 260 257 253 246 247 251 255 257 259 261 262 265 267 269 270 271 272 273 274 276 277 277 278 280 281 281 282 278
9 358 348 337 325 315 305 298 289 280 275 270 262 256 255 255 254 254 255 254 254 257 259 260 262 263 266 268 269 272 273 274 276 277 277 280 280 281 282 284 283 282 280
11 3 356 348 338 328 318 308 295 284 279 274 266 260 255 250 250 251 252 253 255 257 257 257 260 262 264 267 271 274 275 276 278 281 282 284 285 286 286 288 287 285 285
15 11 6 360 353 344 332 324 314 294 281 270 260 251 247 245 246 248 248 250 251 252 252 253 257 261 266 271 275 275 275 278 282 285 288 290 291 291 291 292 292 289 287
Height
5898 5898 5898 5898 5898 5898 5898 5898 5898 5899 5899 5900 5900 5900 5901 5901 5901 5901 5901 5901 5901 5902 5902 5902 5902 5903 5903 5903 5903 5904 5904 5905 5906 5906 5907 5908 5909 5909 5910 5911 5912 5913 5914
5893 5894 5894 5894 5894 5894 5894 5895 5895 5896 5896 5897 5897 5898 5898 5899 5899 5899 5899 5899 5900 5900 5900 5901 5901 5901 5901 5901 5902 5902 5902 5903 5904 5904 5905 5905 5906 5907 5908 5908 5909 5910 5911
5888 5888 5889 5890 5890 5890 5890 5891 5891 5892 5892 5893 5894 5895 5895 5896 5896 5896 5897 5897 5898 5898 5898 5899 5899 5899 5899 5899 5900 5900 5900 5901 5901 5902 5902 5903 5903 5904 5905 5906 5906 5907 5908
5882 5883 5883 5884 5885 5885 5886 5886 5887 5888 5888 5889 5890 5891 5892 5892 5893 5893 5894 5894 5895 5896 5896 5896 5896 5897 5897 5897 5897 5898 5898 5898 5898 5899 5900 5900 5901 5901 5902 5902 5903 5904 5904
5875 5876 5877 5878 5879 5880 5881 5882 5882 5883 5884 5885 5885 5886 5887 5888 5889 5889 5890 5891 5892 5892 5893 5893 5894 5894 5894 5894 5894 5895 5895 5895 5896 5896 5896 5897 5897 5898 5898 5899 5899 5900 5900
5868 5870 5871 5872 5873 5874 5875 5876 5877 5878 5879 5880 5881 5882 5882 5883 5884 5885 5886 5887 5888 5888 5889 5890 5890 5890 5891 5891 5891 5891 5891 5892 5892 5892 5893 5893 5893 5894 5894 5895 5895 5896 5896
5862 5863 5864 5865 5867 5868 5869 5870 5871 5872 5873 5874 5876 5877 5878 5878 5879 5880 5882 5882 5883 5884 5885 5885 5886 5887 5887 5887 5887 5887 5888 5888 5888 5888 5888 5888 5889 5889 5890 5890 5890 5891 5891
5855 5856 5858 5858 5860 5861 5862 5864 5865 5866 5867 5869 5870 5871 5873 5874 5874 5875 5876 5877 5878 5879 5879 5880 5881 5882 5882 5883 5883 5883 5883 5883 5883 5883 5884 5884 5884 5884 5885 5885 5885 5885 5886
5848 5850 5851 5852 5853 5855 5856 5857 5858 5860 5861 5862 5864 5865 5866 5867 5868 5870 5870 5871 5872 5873 5874 5875 5876 5876 5877 5878 5878 5878 5878 5878 5878 5878 5878 5878 5878 5879 5879 5879 5879 5880 5880
5841 5842 5844 5845 5847 5848 5849 5850 5851 5852 5854 5855 5857 5858 5860 5861 5862 5864 5864 5865 5866 5867 5868 5869 5870 5871 5871 5872 5872 5873 5873 5873 5873 5873 5873 5873 5873 5873 5873 5873 5873 5874 5874
5833 5834 5836 5838 5839 5841 5842 5843 5844 5845 5847 5848 5850 5851 5852 5853 5855 5856 5857 5858 5859 5860 5861 5863 5864 5864 5865 5866 5866 5867 5867 5867 5867 5867 5867 5866 5866 5866 5866 5867 5867 5867 5868
5825 5827 5828 5830 5832 5833 5834 5836 5836 5837 5839 5840 5842 5843 5845 5846 5847 5849 5850 5851 5852 5853 5854 5856 5856 5857 5858 5859 5859 5860 5860 5861 5861 5861 5860 5860 5860 5860 5860 5860 5860 5860 5861
5817 5819 5821 5823 5824 5825 5826 5827 5829 5829 5831 5832 5834 5835 5837 5838 5839 5841 5842 5843 5844 5846 5847 5848 5849 5850 5851 5852 5853 5853 5854 5854 5854 5854 5854 5854 5853 5853 5853 5853 5853 5853 5854
5809 5811 5813 5815 5817 5818 5819 5820 5820 5821 5823 5824 5825 5827 5828 5829 5831 5833 5834 5835 5836 5838 5839 5841 5841 5843 5844 5845 5846 5846 5847 5847 5848 5848 5848 5847 5847 5846 5846 5846 5846 5846 5846
5802 5803 5805 5806 5808 5809 5810 5812 5813 5813 5814 5816 5817 5818 5819 5821 5822 5823 5825 5826 5828 5829 5831 5832 5834 5835 5836 5837 5839 5840 5840 5841 5841 5841 5841 5841 5840 5840 5839 5839 5839 5839 5839
5795 5796 5797 5799 5800 5802 5803 5804 5804 5805 5806 5807 5809 5810 5811 5812 5813 5814 5816 5817 5819 5821 5822 5824 5826 5827 5828 5830 5831 5833 5833 5834 5834 5835 5834 5834 5833 5833 5832 5832 5832 5832 5832
5789 5790 5790 5792 5793 5794 5795 5795 5796 5797 5798 5799 5800 5801 5802 5803 5805 5806 5808 5809 5811 5812 5814 5816 5818 5819 5821 5823 5824 5825 5826 5827 5827 5828 5828 5827 5827 5826 5826 5825 5825 5824 5824
5783 5784 5785 5786 5787 5787 5788 5789 5789 5790 5791 5792 5793 5794 5794 5796 5797 5798 5800 5802 5803 5804 5806 5808 5810 5812 5814 5816 5817 5819 5820 5820 5821 5821 5821 5820 5820 5819 5819 5818 5817 5817 5816
5779 5780 5780 5781 5781 5781 5782 5782 5783 5783 5784 5785 5786 5787 5788 5789 5790 5791 5793 5794 5796 5797 5799 5801 5803 5805 5807 5810 5811 5812 5813 5814 5814 5814 5814 5814 5813 5812 5812 5811 5810 5809 5809
5776 5776 5776 5776 5776 5776 5776 5777 5777 5777 5778 5779 5780 5780 5782 5783 5784 5785 5786 5788 5790 5792 5793 5796 5798 5800 5802 5804 5805 5806 5807 5807 5807 5807 5807 5807 5806 5805 5805 5803 5802 5801 5801
5774 5773 5773 5772 5772 5772 5772 5772 5772 5772 5773 5774 5774 5775 5776 5777 5778 5780 5782 5783 5785 5787 5789 5791 5794 5795 5797 5799 5800 5801 5801 5801 5801 5801 5800 5800 5799 5798 5797 5796 5795 5794 5793
5773 5772 5771 5770 5769 5769 5768 5768 5768 5768 5768 5769 5770 5770 5771 5773 5774 5776 5778 5780 5782 5784 5785 5787 5789 5791 5792 5793 5794 5794 5795 5795 5795 5795 5794 5793 5792 5791 5790 5789 5788 5787 5786
5772 5771 5769 5768 5767 5766 5765 5764 5764 5764 5764 5765 5765 5766 5768 5769 5771 5772 5774 5776 5778 5780 5782 5784 5785 5786 5787 5788 5789 5789 5789 5789 5789 5788 5788 5787 5786 5785 5784 5782 5781 5780 5779
5771 5769 5767 5765 5763 5762 5761 5760 5760 5759 5760 5760 5761 5762 5764 5765 5767 5769 5771 5773 5774 5776 5778 5779 5780 5781 5782 5783 5783 5784 5783 5783 5783 5782 5782 5781 5780 5779 5777 5776 5775 5773 5772
5770 5767 5765 5763 5761 5759 5757 5756 5755 5755 5755 5756 5757 5758 5760 5761 5763 5765 5767 5769 5771 5772 5773 5775 5776 5777 5778 5778 5778 5779 5779 5778 5778 5777 5776 5776 5774 5773 5772 5770 5768 5767 5766
5770 5767 5764 5761 5759 5756 5754 5753 5752 5752 5751 5752 5753 5754 5756 5758 5760 5762 5764 5765 5767 5768 5770 5771 5772 5773 5774 5774 5774 5774 5774 5774 5773 5773 5772 5771 5769 5768 5767 5765 5763 5761 5760